Onweer radar Meer informatie blitzortung!


Regen radar Meer informatie rain snow radar


Bezoek onze andere website:

Template documentation
and downloads

And another site



15 daagse weersverwachting Arendal (NO)

  • Overzicht
  • Per uur
  • 15 dagen
  • Extra
  • Vergelijk
  • Kaarten
  • Dagkaart
  • Meer »
  • Info
  • Statistieken
  • Directe link
    Temp 6h Neerslag Wind  
 08:56     16:17    Daglengte: 7:21 Vandaag
13:00
-0°
2.1 mm
5
warningclass
19:00
-1°
1.7 mm
3
warningclass
 08:54     16:19    Daglengte: 7:25 Morgen
01:00
-1°
 
2
07:00
10.6 mm
6
13:00
15.6 mm
6
warningclass
19:00
14.4 mm
4
warningclass
 08:53     16:22    Daglengte: 7:29 Donderdag 21 Jan
01:00
18.1 mm
3
warningclass
07:00
23.7 mm
4
13:00
37.3 mm
8
19:00
43.1 mm
10
warningclass
 08:51     16:24    Daglengte: 7:33 Vrijdag 22 Jan
01:00
57.1 mm
9
07:00
90.5 mm
6
Locatie info
Region: Aust-Agder
Latitude: 58.4701°N
Longitude: 8.7586°E
19 masl
Postcode: 4838
Temp/Neerslag /Baro Onweer/DauwpuntSneeuw
    Temp Baro 1h Neerslag Dauwpunt Wind UV BewolkingSneeuw  
 08:56     16:17    Daglengte: 7:21 Vandaag
13:00
-0°
Voelt als: -4.7°
997.7 hPa 2.1 mm
49%
-0.8°
5
Windvlaag: 4.9 m/s
82%9 cm warningclass
14:00
Voelt als: -4.5°
997.2 hPa 1.7 mm
82%
-0.8°
5
Windvlaag: 3.9 m/s
85%9 cm warningclass
15:00
Voelt als: -4.6°
997.1 hPa
82%
-1.0°
5
Windvlaag: 4.1 m/s
80%9 cm
16:00
-0°
Voelt als: -4.5°
997.0 hPa
78%
-1.2°
4
Windvlaag: 3.9 m/s
88%9 cm
17:00
-0°
Voelt als: -4.4°
997.1 hPa
72%
-1.3°
4
Windvlaag: 3.1 m/s
89%9 cm
18:00
-1°
Voelt als: -4.8°
996.8 hPa
66%
-1.7°
4
Windvlaag: 2.7 m/s
79%9 cm
19:00
-1°
Voelt als: -4.8°
996.7 hPa
29%
-1.9°
3
Windvlaag: 2.2 m/s
90%9 cm
20:00
-1°
Voelt als: -4.7°
996.6 hPa
65%
-1.7°
3
Windvlaag: 1.8 m/s
91%9 cm
21:00
-1°
Voelt als: -4.8°
996.5 hPa
24%
-1.9°
3
Windvlaag: 1.8 m/s
91%9 cm
22:00
-1°
Voelt als: -4.3°
996.5 hPa
20%
-1.8°
3
Windvlaag: 1.6 m/s
90%9 cm
23:00
-1°
Voelt als: -4.1°
996.5 hPa
26%
-1.8°
3
Windvlaag: 1.5 m/s
91%9 cm
 08:54     16:19    Daglengte: 7:25 Morgen
00:00
-1°
Voelt als: -3.8°
996.3 hPa
68%
-1.5°
2
Windvlaag: 1.8 m/s
91%9 cm
01:00
-1°
Voelt als: -3.6°
995.9 hPa
71%
-1.3°
2
Windvlaag: 1.4 m/s
91%9 cm
02:00
-0°
Voelt als: -3.6°
995.3 hPa
82%
-1.0°
3
Windvlaag: 1.8 m/s
91%9 cm
03:00
Voelt als: -3.6°
994.5 hPa
82%
-0.4°
4
Windvlaag: 2.5 m/s
91%9 cm
04:00
Voelt als: -3.5°
993.6 hPa 2.3 mm
82%
-0.1°
4
Windvlaag: 4 m/s
90%9 cm warningclass
05:00
Voelt als: -3.2°
992.9 hPa 2.7 mm
82%
0.6°
4
Windvlaag: 4 m/s
91%9 cm warningclass
06:00
Voelt als: -2.8°
992.4 hPa 3.1 mm
82%
1.3°
5
Windvlaag: 6.4 m/s
91%8 cm
07:00
Voelt als: -3.5°
991.6 hPa 2.4 mm
82%
1.2°
6
Windvlaag: 7.3 m/s
91%8 cm
08:00
Voelt als: -4.3°
991.3 hPa 2.6 mm
82%
0.8°
6
Windvlaag: 8 m/s
91%8 cm warningclass
09:00
Voelt als: -4.9°
990.8 hPa 2.7 mm
82%
0.3°
6
Windvlaag: 8.2 m/s
91%8 cm warningclass
10:00
Voelt als: -5.2°
990.2 hPa 2.9 mm
82%
0.2°
6
Windvlaag: 8 m/s
90%8 cm warningclass
11:00
Voelt als: -5.1°
989.4 hPa 2.6 mm
82%
0.2°
6
Windvlaag: 7.3 m/s
90%8 cm warningclass
12:00
Voelt als: -4.9°
988.7 hPa 2.4 mm
82%
0.2°
6
Windvlaag: 8 m/s
90%8 cm warningclass
13:00
Voelt als: -4.7°
988.0 hPa 2.4 mm
82%
0.2°
6
Windvlaag: 7.4 m/s
90%8 cm warningclass
14:00
Voelt als: -4.5°
987.3 hPa 2.3 mm
82%
0.1°
5
Windvlaag: 6.8 m/s
90%8 cm warningclass
15:00
Voelt als: -4.5°
986.8 hPa 2.4 mm
82%
0.1°
5
Windvlaag: 5.4 m/s
91%8 cm warningclass
16:00
Voelt als: -4.3°
986.5 hPa 2.3 mm
82%
0.1°
5
Windvlaag: 5.5 m/s
89%8 cm warningclass
17:00
Voelt als: -4.2°
986.3 hPa 2.3 mm
82%
0.1°
5
Windvlaag: 4.6 m/s
90%8 cm warningclass
18:00
Voelt als: -3.9°
986.1 hPa 2.5 mm
82%
0.1°
4
Windvlaag: 4 m/s
91%8 cm warningclass
19:00
Voelt als: -3.8°
986.0 hPa 2.7 mm
82%
0.1°
4
Windvlaag: 3.1 m/s
91%8 cm warningclass
20:00
Voelt als: -3.7°
985.7 hPa 2.7 mm
82%
0.1°
4
Windvlaag: 2.7 m/s
91%9 cm warningclass
21:00
Voelt als: -3.6°
985.4 hPa 2.6 mm
82%
0.1°
4
Windvlaag: 2.7 m/s
91%9 cm warningclass
22:00
Voelt als: -3.3°
985.0 hPa 3.0 mm
82%
0.2°
4
Windvlaag: 2.7 m/s
91%10 cm warningclass
23:00
Voelt als: -3.2°
984.7 hPa 3.0 mm
82%
0.3°
4
Windvlaag: 2.7 m/s
91%11 cm warningclass
 08:53     16:22    Daglengte: 7:29 Donderdag 21 Jan
00:00
Voelt als: -2.9°
984.2 hPa 3.3 mm
82%
0.5°
3
Windvlaag: 2.7 m/s
91%11 cm warningclass
01:00
Voelt als: -2.6°
983.8 hPa 3.5 mm
82%
0.7°
3
Windvlaag: 1.8 m/s
91%12 cm warningclass
02:00
Voelt als: -2.4°
983.2 hPa 3.2 mm
82%
0.9°
4
Windvlaag: 4.8 m/s
91%12 cm
03:00
Voelt als: -2.3°
982.4 hPa 3.5 mm
82%
0.7°
4
Windvlaag: 5 m/s
91%12 cm
04:00
Voelt als: -2.5°
981.8 hPa 3.7 mm
82%
0.9°
4
Windvlaag: 5.3 m/s
91%13 cm
05:00
Voelt als: -1.9°
981.2 hPa 4.3 mm
82%
1.7°
4
Windvlaag: 6 m/s
91%13 cm
06:00
Voelt als: -1.1°
980.5 hPa 4.4 mm
82%
2.1°
4
Windvlaag: 5.2 m/s
91%13 cm
07:00
Voelt als: -0.8°
979.6 hPa 4.5 mm
82%
2.2°
4
Windvlaag: 4.1 m/s
91%13 cm
08:00
Voelt als: -0.7°
978.7 hPa 5.3 mm
82%
2.3°
4
Windvlaag: 4.3 m/s
91%14 cm
09:00
Voelt als: -0.6°
977.6 hPa 6.3 mm
82%
2.5°
4
Windvlaag: 7 m/s
91%14 cm
10:00
Voelt als: -0.7°
976.9 hPa 6.8 mm
100%
2.5°
5
Windvlaag: 10.6 m/s
100%15 cm
11:00
Voelt als: -0.6°
975.8 hPa 6.9 mm
100%
3.2°
6
Windvlaag: 12.5 m/s
100%15 cm
12:00
Voelt als: -0.8°
974.9 hPa 6.2 mm
100%
3.7°
8
Windvlaag: 16.2 m/s
100%15 cm
13:00
Voelt als: -0.8°
974.3 hPa 5.8 mm
100%
3.4°
8
Windvlaag: 17 m/s
93%14 cm
14:00
Voelt als: -1.3°
974.0 hPa 6.1 mm
100%
2.1°
9
Windvlaag: 16 m/s
87%14 cm
15:00
Voelt als: -1.8°
973.6 hPa 6.2 mm
100%
2.5°
8
Windvlaag: 17.3 m/s
90%13 cm warningclass
16:00
Voelt als: -2.4°
973.6 hPa 8.9 mm
25%
2.1°
9
Windvlaag: 18.7 m/s
92%13 cm warningclass
17:00
Voelt als: -2.5°
973.6 hPa 6.2 mm
100%
1.1°
9
Windvlaag: 19.1 m/s
93%12 cm warningclass
18:00
Voelt als: -2.4°
973.8 hPa 6.4 mm
97%
-0.2°
10
Windvlaag: 20 m/s
91%12 cm warningclass
19:00
Voelt als: -2.0°
973.8 hPa 9.3 mm
100%
0.1°
10
Windvlaag: 20.6 m/s
100%12 cm warningclass
20:00
Voelt als: -2.0°
973.4 hPa 9.3 mm
99%
0.6°
10
Windvlaag: 17.6 m/s
99%11 cm warningclass
21:00
Voelt als: -2.0°
972.9 hPa 9.6 mm
93%
1.1°
10
Windvlaag: 17.2 m/s
99%12 cm warningclass
22:00
Voelt als: -2.0°
972.6 hPa 9.5 mm
94%
1.5°
10
Windvlaag: 18.1 m/s
97%12 cm warningclass
23:00
Voelt als: -1.6°
972.3 hPa 9.6 mm
100%
2.1°
10
Windvlaag: 17.4 m/s
99%12 cm warningclass
 08:51     16:24    Daglengte: 7:33 Vrijdag 22 Jan
00:00
Voelt als: -1.6°
972.1 hPa 9.6 mm
97%
2.5°
9
Windvlaag: 17.2 m/s
97%12 cm warningclass
01:00
Voelt als: -1.7°
971.8 hPa 9.6 mm
97%
2.8°
9
Windvlaag: 7.7 m/s
93%11 cm
02:00
Voelt als: -1.6°
971.8 hPa 9.8 mm
100%
2.7°
9
Windvlaag: 16.2 m/s
96%11 cm
03:00
Voelt als: -1.7°
971.8 hPa 16.2 mm
97%
2.7°
8
Windvlaag: 15.8 m/s
96%11 cm
04:00
Voelt als: -1.6°
971.7 hPa 16.1 mm
94%
2.6°
8
Windvlaag: 15 m/s
95%11 cm
05:00
Voelt als: -1.6°
971.6 hPa 16.1 mm
95%
2.4°
7
Windvlaag: 13.5 m/s
97%10 cm
06:00
Voelt als: -1.5°
971.5 hPa 16.1 mm
97%
2.3°
7
Windvlaag: 12.2 m/s
97%10 cm
07:00
Voelt als: -1.6°
971.5 hPa 16.1 mm
100%
2.1°
6
Windvlaag: 5.4 m/s
95%10 cm
08:00
Voelt als: -1.6°
970.7 hPa 16.2 mm
100%
1.8°
6
Windvlaag: 13.1 m/s
94%10 cm
09:00
Voelt als: -1.6°
970.7 hPa 16.9 mm
100%
1.7°
5
Windvlaag: 12.3 m/s
93%10 cm
10:00
Voelt als: -1.3°
970.6 hPa 16.5 mm
100%
1.9°
5
Windvlaag: 11.3 m/s
86%10 cm
11:00
Voelt als: -0.9°
970.6 hPa 16.5 mm
100%
2.0°
5
Windvlaag: 11.7 m/s
94%10 cm
12:00
Voelt als: -0.6°
970.4 hPa 17.9 mm
100%
2.2°
5
Windvlaag: 11.3 m/s
95%10 cm
Temp/Neerslag /Baro Onweer/DauwpuntSneeuw
    Temp Baro Neerslag Dauwpunt Wind BewolkingSneeuw  
 08:56     16:17    Daglengte: 7:21 Vandaag
13:00
-0°
Voelt als: -4.7°
997.7 hPa 2.1 mm -0.8°
5
82%9 cm warningclass
16:00
-0°
Voelt als: -4.5°
997.0 hPa 1.7 mm -1.2°
4
88%9 cm warningclass
19:00
-1°
Voelt als: -4.8°
996.7 hPa   -1.9°
3
90%9 cm
22:00
-1°
Voelt als: -4.3°
996.5 hPa   -1.8°
3
90%9 cm
 08:54     16:19    Daglengte: 7:25 Morgen
01:00
-1°
Voelt als: -3.6°
995.9 hPa   -1.3°
2
91%9 cm
04:00
Voelt als: -3.5°
993.6 hPa 2.3 mm -0.1°
4
90%9 cm warningclass
07:00
Voelt als: -3.5°
991.6 hPa 8.2 mm 1.2°
6
91%8 cm
10:00
Voelt als: -5.2°
990.2 hPa 8.2 mm 0.2°
6
90%8 cm warningclass
13:00
Voelt als: -4.7°
988.0 hPa 7.4 mm 0.2°
6
90%8 cm warningclass
16:00
Voelt als: -4.3°
986.5 hPa 6.9 mm 0.1°
5
89%8 cm warningclass
19:00
Voelt als: -3.8°
986.0 hPa 7.5 mm 0.1°
4
91%8 cm warningclass
22:00
Voelt als: -3.3°
985.0 hPa 8.3 mm 0.2°
4
91%10 cm warningclass
 08:53     16:22    Daglengte: 7:29 Donderdag 21 Jan
01:00
Voelt als: -2.6°
983.8 hPa 9.9 mm 0.7°
3
91%12 cm warningclass
04:00
Voelt als: -2.5°
981.8 hPa 10.5 mm 0.9°
4
91%13 cm
07:00
Voelt als: -0.8°
979.6 hPa 13.2 mm 2.2°
4
91%13 cm
10:00
Voelt als: -0.7°
976.9 hPa 18.4 mm 2.5°
5
100%15 cm
13:00
Voelt als: -0.8°
974.3 hPa 18.9 mm 3.4°
8
93%14 cm
16:00
Voelt als: -2.4°
973.6 hPa 21.1 mm 2.1°
9
92%13 cm warningclass
19:00
Voelt als: -2.0°
973.8 hPa 21.9 mm 0.1°
10
100%12 cm warningclass
22:00
Voelt als: -2.0°
972.6 hPa 28.3 mm 1.5°
10
97%12 cm warningclass
 08:51     16:24    Daglengte: 7:33 Vrijdag 22 Jan
01:00
Voelt als: -1.7°
971.8 hPa 28.8 mm 2.8°
9
93%11 cm
04:00
Voelt als: -1.6°
971.7 hPa 42.2 mm 2.6°
8
95%11 cm
07:00
Voelt als: -1.6°
971.5 hPa 48.3 mm 2.1°
6
95%10 cm
10:00
Voelt als: -1.3°
970.6 hPa 49.6 mm 1.9°
5
86%10 cm
13:00
Voelt als: -0.6°
970.2 hPa 52.4 mm 2.2°
5
96%10 cm
16:00
Voelt als: -0.8°
975.4 hPa 65.9 mm 1.9°
5
89%
19:00
Voelt als: -1.2°
976.7 hPa 65.9 mm 1.4°
4
88%
22:00
Voelt als: -1.3°
978.4 hPa 65.9 mm 1.3°
4
87%
 08:49     16:26    Daglengte: 7:37 Zaterdag 23 Jan
01:00
Voelt als: -1.6°
980.2 hPa 65.9 mm 1.0°
5
87%
04:00
Voelt als: -2.0°
981.7 hPa 65.9 mm 0.4°
4
87%
07:00
Voelt als: -2.3°
983.3 hPa 65.9 mm -0.1°
4
87%
10:00
Voelt als: -1.4°
984.8 hPa 65.9 mm 0.1°
4
86%
13:00
Voelt als: -0.4°
986.3 hPa 65.9 mm 0.3°
4
85%
16:00
Voelt als: -1.2°
986.8 hPa 66.0 mm -0.2°
3
70%
19:00
Voelt als: -2.2°
987.3 hPa 66.1 mm -0.7°
2
55% warningclass
22:00
Voelt als: -2.1°
987.2 hPa 66.2 mm -1.3°
2
70% warningclass
 08:47     16:29    Daglengte: 7:42 Zondag 24 Jan
01:00
-0°
Voelt als: -1.8°
987.0 hPa 66.2 mm -1.8°
1
84% warningclass
04:00
-1°
Voelt als: -2.2°
987.6 hPa 66.2 mm -2.0°
1
87% warningclass
07:00
-1°
Voelt als: -2.7°
988.3 hPa 66.2 mm -2.3°
1
89% warningclass
10:00
-0°
Voelt als: -1.9°
989.5 hPa 66.2 mm -2.0°
1
88% warningclass
13:00
Voelt als: -0.7°
990.7 hPa 66.2 mm -1.5°
2
87% warningclass
16:00
Voelt als: -1.8°
992.1 hPa 66.2 mm -1.8°
2
89% warningclass
19:00
-0°
Voelt als: -2.9°
993.4 hPa 66.2 mm -2.2°
2
90% warningclass
22:00
-1°
Voelt als: -3.0°
994.1 hPa 66.2 mm -2.9°
2
87% warningclass
 08:45     16:31    Daglengte: 7:46 Maandag 25 Jan
01:00
-1°
Voelt als: -3.0°
994.7 hPa 66.2 mm -3.6°
1
84% warningclass
04:00
-2°
Voelt als: -3.8°
995.0 hPa 66.2 mm -3.8°
2
80% warningclass
07:00
-2°
Voelt als: -4.6°
995.4 hPa 66.3 mm -4.0°
2
76% warningclass
10:00
-1°
Voelt als: -3.5°
996.8 hPa 66.3 mm -4.0°
2
73% warningclass
13:00
Voelt als: -2.1°
998.0 hPa 66.3 mm -3.9°
2
71% warningclass
16:00
-1°
Voelt als: -3.0°
999.1 hPa 66.3 mm -3.7°
2
66% warningclass
19:00
-2°
Voelt als: -3.9°
1000.2 hPa 66.3 mm -3.6°
2
61% warningclass
22:00
-3°
Voelt als: -5.3°
1001.0 hPa 66.3 mm -5.1°
2
43% warningclass
 08:43     16:33    Daglengte: 7:50 Dinsdag 26 Jan
01:00
-4°
Voelt als: -6.8°
1001.7 hPa 66.3 mm -6.7°
2
24% warningclass
04:00
-5°
Voelt als: -6.9°
1001.7 hPa 66.3 mm -6.8°
1
43% warningclass
07:00
-5°
Voelt als: -6.9°
1001.7 hPa 66.3 mm -6.9°
1
62% warningclass
10:00
-3°
Voelt als: -4.8°
1001.7 hPa   -5.8°
1
61% warningclass
13:00
-1°
Voelt als: -2.6°
1001.7 hPa 132.6 mm -4.5°
1
60% warningclass
19:00
-2°
Voelt als: -4.8°
1003.0 hPa 132.6 mm -4.1°
2
82% warningclass
 08:41     16:36    Daglengte: 7:55 Woensdag 27 Jan
01:00
-3°
Voelt als: -6.2°
1003.2 hPa 132.6 mm -5.4°
2
85% warningclass
07:00
-4°
Voelt als: -7.6°
1002.1 hPa 132.6 mm -6.7°
2
82% warningclass
13:00
-2°
Voelt als: -5.0°
1002.3 hPa 132.6 mm -5.0°
2
88% warningclass
19:00
-2°
Voelt als: -5.4°
1005.0 hPa 132.6 mm -5.0°
2
88% warningclass
 08:39     16:38    Daglengte: 7:59 Donderdag 28 Jan
01:00
-5°
Voelt als: -8.0°
1005.1 hPa 132.6 mm -8.0°
2
87% warningclass
07:00
-5°
Voelt als: -8.2°
1005.1 hPa 132.6 mm -8.2°
2
90% warningclass
13:00
-3°
Voelt als: -5.2°
1004.7 hPa 132.6 mm -6.1°
2
90% warningclass
19:00
-3°
Voelt als: -6.6°
1006.1 hPa 132.6 mm -6.3°
2
87% warningclass
 08:37     16:40    Daglengte: 8:03 Vrijdag 29 Jan
01:00
-5°
Voelt als: -7.9°
1011.6 hPa 132.6 mm -8.4°
2
0% warningclass
07:00
-3°
Voelt als: -7.3°
1002.1 hPa 0.9 mm -4.6°
4
78%
13:00
-1°
Voelt als: -4.2°
1003.3 hPa 1.2 mm -3.2°
3
72%
19:00
-1°
Voelt als: -4.5°
1003.8 hPa 0.8 mm -3.3°
2
73%
 08:35     16:43    Daglengte: 8:08 Zaterdag 30 Jan
01:00
-1°
Voelt als: -4.7°
1003.6 hPa 1.5 mm -3.4°
2
73%
07:00
-2°
Voelt als: -5.1°
1002.6 hPa 1.4 mm -3.6°
3
77%
13:00
-0°
Voelt als: -3.2°
1002.4 hPa 1.3 mm -2.3°
3
78%
19:00
-1°
Voelt als: -4.2°
1001.7 hPa 1.5 mm -2.8°
3
74%
 08:33     16:45    Daglengte: 8:12 Zondag 31 Jan
01:00
-1°
Voelt als: -5.2°
1001.1 hPa 2.2 mm -3.3°
3
78%
07:00
-2°
Voelt als: -6.4°
999.4 hPa 2.4 mm -3.8°
3
83%
13:00
-1°
Voelt als: -5.5°
999.3 hPa 1.8 mm -2.7°
4
78%
19:00
-2°
Voelt als: -6.2°
999.1 hPa 0.2 mm -3.5°
4
78%
 08:31     16:48    Daglengte: 8:17 Maandag 01 Feb
01:00
-2°
Voelt als: -7.5°
1000.0 hPa 0.7 mm -4.5°
4
77%
07:00
-3°
Voelt als: -8.3°
1000.5 hPa 0.9 mm -5.4°
4
70%
13:00
-2°
Voelt als: -6.1°
1002.1 hPa 0.6 mm -4.0°
4
65%
19:00
-2°
Voelt als: -6.8°
1002.9 hPa 0.4 mm -4.7°
4
70%
 08:29     16:50    Daglengte: 8:21 Dinsdag 02 Feb
01:00
-3°
Voelt als: -7.3°
1003.5 hPa 1.3 mm -5.0°
4
76%
07:00
-4°
Voelt als: -9.3°
1002.6 hPa 1.4 mm -5.7°
5
78%
13:00
-2°
Voelt als: -8.0°
1002.8 hPa 1.9 mm -4.5°
5
75%
19:00
-3°
Voelt als: -9.0°
1003.3 hPa 1.9 mm -5.2°
5
75%
 08:26     16:53    Daglengte: 8:27 Woensdag 03 Feb
01:00
-4°
Voelt als: -9.8°
1004.4 hPa 1.4 mm -6.2°
5
76%
07:00
-4°
Voelt als: -9.9°
1004.3 hPa 1.1 mm -6.4°
4
77%
  CAPE Lifted Index Hail Supercell Tornado SRH 3km CL BTM PRES CL TOP PRES Swiss DWD icon SMHI TS
 08:56     16:17    Daglengte: 7:21 Vandaag
13:00 1 J/kg 2.9 K 0 % 0 % 0 % 0 m²/s² 0 0 4.43 71
14:00 1 J/kg 2.9 K 0 % 0 % 0 % 0 m²/s² 0 0 3.98 71
15:00 1 J/kg 3.4 K 0 % 0 % 0 % 0 m²/s² 0 0 4.57 3
16:00 0 J/kg 3.8 K 0 % 0 % 0 % 0 m²/s² 0 0 5.6 3
17:00 0 J/kg 3.9 K 0 % 0 % 0 % 0 m²/s² 0 0 6.54 3
18:00 0 J/kg 4.7 K 0 % 0 % 0 % 0 m²/s² 0 0 7.49 3
19:00 0 J/kg 5.2 K 0 % 0 % 0 % 0 m²/s² 0 0 8.05 3
20:00 0 J/kg 6.0 K 0 % 0 % 0 % 0 m²/s² 0 0 9.12 3
21:00 0 J/kg 6.8 K 0 % 0 % 0 % 0 m²/s² 0 0 11.03 3
22:00 0 J/kg 7.5 K 0 % 0 % 0 % 0 m²/s² 0 0 12.9 3
23:00 0 J/kg 8.1 K 0 % 0 % 0 % 0 m²/s² 0 0 13.2 3
 08:54     16:19    Daglengte: 7:25 Morgen
00:00 0 J/kg 8.5 K 0 % 0 % 0 % 0 m²/s² 0 0 13.93 3
01:00 1 J/kg 8.8 K 0 % 0 % 0 % 0 m²/s² 0 0 14.08 3
02:00 3 J/kg 9.3 K 0 % 0 % 0 % 0 m²/s² 0 0 14.34 3
03:00 8 J/kg 10.3 K 0 % 0 % 0 % 0 m²/s² 0 0 14.86 85
04:00 14 J/kg 10.8 K 0 % 0 % 0 % 0 m²/s² 0 0 14.19 77
05:00 18 J/kg 11.0 K 0 % 0 % 0 % 0 m²/s² 0 0 13.52 71
06:00 16 J/kg 11.6 K 0 % 0 % 0 % 0 m²/s² 0 0 13.19 73
07:00 12 J/kg 12.1 K 0 % 0 % 0 % 0 m²/s² 0 0 13 73
08:00 3 J/kg 12.0 K 0 % 0 % 0 % 0 m²/s² 0 0 12.45 71
09:00 3 J/kg 11.6 K 0 % 0 % 0 % 0 m²/s² 0 0 11.99 71
10:00 2 J/kg 10.7 K 0 % 0 % 0 % 0 m²/s² 0 0 11.15 71
11:00 2 J/kg 10.2 K 0 % 0 % 0 % 0 m²/s² 0 0 10.59 77
12:00 2 J/kg 9.7 K 0 % 0 % 0 % 0 m²/s² 0 0 10.06 77
13:00 3 J/kg 9.5 K 0 % 0 % 0 % 0 m²/s² 0 0 9.86 77
14:00 1 J/kg 9.2 K 0 % 0 % 0 % 0 m²/s² 0 0 9.53 77
15:00 1 J/kg 8.0 K 0 % 0 % 0 % 0 m²/s² 0 0 8.6 85
16:00 1 J/kg 7.2 K 0 % 0 % 0 % 0 m²/s² 0 0 7.95 71
17:00 0 J/kg 7.4 K 0 % 0 % 0 % 0 m²/s² 0 0 7.88 71
18:00 0 J/kg 6.8 K 0 % 0 % 0 % 0 m²/s² 0 0 7.46 73
19:00 0 J/kg 7.0 K 0 % 0 % 0 % 0 m²/s² 0 0 7.78 73
20:00 0 J/kg 5.2 K 0 % 0 % 0 % 0 m²/s² 0 0 5.56 73
21:00 0 J/kg 5.5 K 0 % 0 % 0 % 0 m²/s² 0 0 5.83 73
22:00 0 J/kg 5.4 K 0 % 0 % 0 % 0 m²/s² 0 0 5.67 57
23:00 0 J/kg 5.4 K 0 % 0 % 0 % 0 m²/s² 0 0 5.7 71
 08:53     16:22    Daglengte: 7:29 Donderdag 21 Jan
00:00 0 J/kg 5.9 K 0 % 0 % 0 % 0 m²/s² 0 0 6.23 77
01:00 0 J/kg 5.7 K 0 % 0 % 0 % 0 m²/s² 0 0 6.03 71
02:00 0 J/kg 5.5 K 0 % 0 % 0 % 0 m²/s² 0 0 5.8 57
03:00 1 J/kg 5.3 K 0 % 0 % 0 % 0 m²/s² 0 0 5.63 73
04:00 1 J/kg 4.7 K 0 % 0 % 0 % 0 m²/s² 0 0 5 73
05:00 1 J/kg 4.6 K 0 % 0 % 0 % 0 m²/s² 0 0 4.87 73
06:00 2 J/kg 3.4 K 0 % 0 % 0 % 0 m²/s² 0 0 3.76 73
07:00 2 J/kg 2.4 K 0 % 0 % 0 % 0 m²/s² 0 0 2.85 66
08:00 2 J/kg 2.6 K 0 % 0 % 0 % 0 m²/s² 0 0 3.17 63
09:00 1 J/kg 3.0 K 0 % 0 % 0 % 0 m²/s² 0 0 3.36 63
10:00 1 J/kg 3.3 K 0 % 0 % 0 % 0 m²/s² 0 0 3.57 63
11:00 0 J/kg 3.5 K 0 % 0 % 0 % 0 m²/s² 0 0 3.77 63
12:00 0 J/kg 4.3 K 0 % 0 % 0 % 0 m²/s² 0 0 4.57 80
13:00 6 J/kg 4.8 K 0 % 0 % 0 % 0 m²/s² 0 0 5.07 3
14:00 96 J/kg 5.2 K 0 % 0 % 0 % 0 m²/s² 0 0 5.56 61
15:00 50 J/kg 5.9 K 0 % 0 % 0 % 0 m²/s² 0 0 10.43 61
16:00 67 J/kg 3.0 K 0 % 0 % 0 % 0 m²/s² 0 0 3.78 3
17:00 48 J/kg 2.8 K 0 % 0 % 0 % 0 m²/s² 0 0 3.34 2
18:00 21 J/kg 3.9 K 0 % 0 % 0 % 0 m²/s² 0 0 4.41 80
19:00 14 J/kg 4.2 K 0 % 0 % 0 % 0 m²/s² 0 0 4.65 80
20:00 10 J/kg 4.7 K 0 % 0 % 0 % 0 m²/s² 0 0 5.15 95
21:00 3 J/kg 4.0 K 0 % 0 % 0 % 0 m²/s² 0 0 4.42 80
22:00 4 J/kg 3.0 K 0 % 0 % 0 % 0 m²/s² 0 0 5.43 80
23:00 51 J/kg 3.1 K 0 % 0 % 0 % 0 m²/s² 0 0 4 80
 08:51     16:24    Daglengte: 7:33 Vrijdag 22 Jan
00:00 46 J/kg 3.1 K 0 % 0 % 0 % 0 m²/s² 0 0 3.58 80
01:00 18 J/kg 3.2 K 0 % 0 % 0 % 0 m²/s² 0 0 4.04 80
02:00 43 J/kg 3.3 K 0 % 0 % 0 % 0 m²/s² 0 0 3.84 80
03:00 20 J/kg 3.8 K 0 % 0 % 0 % 0 m²/s² 0 0 6.23 80
04:00 7 J/kg 3.8 K 0 % 0 % 0 % 0 m²/s² 0 0 6.32 80
05:00 4 J/kg 3.5 K 0 % 0 % 0 % 0 m²/s² 0 0 5.48 80
06:00 0 J/kg 3.4 K 0 % 0 % 0 % 0 m²/s² 0 0 4.81 3
07:00 1 J/kg 3.7 K 0 % 0 % 0 % 0 m²/s² 0 0 5.44 80
08:00 0 J/kg 4.5 K 0 % 0 % 0 % 0 m²/s² 0 0 6.72 80
09:00 0 J/kg 5.2 K 0 % 0 % 0 % 0 m²/s² 0 0 7.99 80
10:00 0 J/kg 5.2 K 0 % 0 % 0 % 0 m²/s² 0 0 7.54 80
11:00 0 J/kg 5.3 K 0 % 0 % 0 % 0 m²/s² 0 0 7.52 80
12:00 0 J/kg 4.6 K 0 % 0 % 0 % 0 m²/s² 0 0 6.28 63
Temp Baro Wind Neerslag
  EWN Forecast EWN WRFDA DWD ICON FMI HIRLAM MET Norway GFS
 08:56     16:17    Daglengte: 7:21 Vandaag
13:00 -0.0° 997.7 hPa 4.5 m/s 2.1 mm 0.2° 993.6 hPa 4.1 m/s 10.0 mm -0.9° 998.5 hPa 5.7 m/s 0.3 mm 1.4° 998.3 hPa 3.1 m/s 0.0 mm 0.0° 997.9 hPa 4.5 m/s -0.1° 997.6 hPa 4.8 m/s
16:00 -0.1° 997.0 hPa 4.1 m/s 1.7 mm -0.0° 992.7 hPa 3.1 m/s 30.2 mm -0.8° 998.4 hPa 4.9 m/s 0.2 mm 1.9° 997.0 hPa 3.2 m/s 0.0 mm -0.2° 997.2 hPa 4.0 m/s -0.2° 996.4 hPa 4.4 m/s
19:00 -0.9° 996.7 hPa 3.2 m/s 0.0 mm -2.0° 992.0 hPa 2.5 m/s 30.3 mm -0.8° 998.1 hPa 3.3 m/s 0.0 mm 1.1° 996.7 hPa 3.8 m/s 0.0 mm -1.3° 996.9 hPa 2.4 m/s -0.7° 995.8 hPa 4.0 m/s
22:00 -0.8° 996.5 hPa 2.8 m/s 0.0 mm -1.3° 991.4 hPa 2.6 m/s 30.3 mm -0.5° 998.1 hPa 4.0 m/s 0.0 mm 1.1° 995.7 hPa 2.7 m/s 0.0 mm -1.8° 996.8 hPa 1.9 m/s -0.4° 995.3 hPa 3.8 m/s
 08:54     16:19    Daglengte: 7:25 Morgen
01:00 -0.5° 995.9 hPa 2.5 m/s 0.0 mm 0.8° 991.0 hPa 2.4 m/s 30.4 mm -0.9° 997.0 hPa 5.0 m/s 0.0 mm 2.2° 994.8 hPa 1.8 m/s 0.0 mm -1.0° 996.2 hPa 1.6 m/s -1.1° 995.0 hPa 4.4 m/s
04:00 0.6° 993.6 hPa 4.0 m/s 2.3 mm 1.8° 988.7 hPa 4.0 m/s 31.0 mm -0.7° 995.3 hPa 5.8 m/s 0.8 mm 2.8° 993.0 hPa 3.3 m/s 0.0 mm 0.6° 993.6 hPa 3.5 m/s -0.3° 992.0 hPa 5.5 m/s
07:00 1.5° 991.6 hPa 5.9 m/s 8.2 mm 1.5° 987.3 hPa 5.8 m/s 31.7 mm -0.8° 993.4 hPa 6.3 m/s 3.2 mm 2.5° 991.5 hPa 5.0 m/s 0.0 mm 2.3° 991.1 hPa 6.3 m/s 0.2° 989.9 hPa 7.2 m/s
10:00 0.3° 990.2 hPa 6.2 m/s 8.2 mm 0.4° 985.6 hPa 6.9 m/s 32.5 mm -0.7° 991.8 hPa 6.2 m/s 2.8 mm 1.6° 990.1 hPa 5.1 m/s 0.0 mm 0.4° 989.3 hPa 6.5 m/s -0.3° 987.8 hPa 8.1 m/s
13:00 0.4° 988.0 hPa 5.6 m/s 7.4 mm 0.5° 984.4 hPa 6.2 m/s 34.7 mm -0.6° 990.1 hPa 5.9 m/s 2.3 mm 1.1° 987.6 hPa 4.8 m/s 0.0 mm 0.6° 987.5 hPa 5.2 m/s -0.5° 987.1 hPa 7.6 m/s
16:00 0.5° 986.5 hPa 5.0 m/s 6.9 mm 0.6° 982.6 hPa 6.0 m/s 38.4 mm -0.8° 989.0 hPa 5.5 m/s 1.7 mm 1.1° 985.2 hPa 4.7 m/s 0.0 mm 0.8° 986.2 hPa 3.9 m/s -0.4° 986.4 hPa 5.7 m/s
19:00 0.5° 986.0 hPa 4.2 m/s 7.5 mm 0.4° 982.5 hPa 5.6 m/s 41.6 mm -0.7° 988.0 hPa 5.4 m/s 3.4 mm 1.2° 984.2 hPa 3.4 m/s 0.0 mm 0.9° 985.9 hPa 2.4 m/s -0.5° 986.6 hPa 5.7 m/s
22:00 0.6° 985.0 hPa 3.6 m/s 8.3 mm 0.3° 980.7 hPa 6.4 m/s 45.4 mm -0.4° 986.6 hPa 4.8 m/s 3.6 mm 1.5° 983.3 hPa 2.9 m/s 0.0 mm 1.1° 985.1 hPa 2.2 m/s -0.5° 985.6 hPa 6.1 m/s
 08:53     16:22    Daglengte: 7:29 Donderdag 21 Jan
01:00 1.0° 983.8 hPa 3.3 m/s 9.9 mm 0.3° 978.8 hPa 5.8 m/s 56.7 mm -0.2° 985.3 hPa 3.9 m/s 0.8 mm 1.5° 981.1 hPa 3.1 m/s 0.0 mm 2.5° 984.1 hPa 0.7 m/s -0.5° 984.7 hPa 6.1 m/s
04:00 1.6° 981.8 hPa 4.1 m/s 10.5 mm 0.5° 976.5 hPa 4.8 m/s 62.1 mm -0.0° 982.9 hPa 4.5 m/s 2.7 mm 1.9° 977.8 hPa 0.8 m/s 0.0 mm 4.9° 982.3 hPa 4.9 m/s -0.8° 983.0 hPa 4.9 m/s
07:00 2.9° 979.6 hPa 4.2 m/s 13.2 mm 1.3° 975.5 hPa 3.3 m/s 69.0 mm 0.3° 980.6 hPa 3.9 m/s 5.6 mm 5.8° 975.3 hPa 7.2 m/s 0.0 mm 4.6° 980.2 hPa 3.6 m/s -0.6° 982.2 hPa 4.7 m/s
10:00 3.2° 976.9 hPa 4.5 m/s 18.4 mm 2.3° 972.0 hPa 2.7 m/s 81.2 mm 1.5° 977.2 hPa 1.4 m/s 11.5 mm 4.7° 977.1 hPa 6.6 m/s 0.9° 978.8 hPa 4.6 m/s
13:00 4.2° 974.3 hPa 7.7 m/s 18.9 mm 4.2° 968.5 hPa 8.6 m/s 106.4 mm 3.4° 976.6 hPa 4.9 m/s 2.8 mm 4.8° 974.1 hPa 7.9 m/s 4.7° 976.7 hPa 8.7 m/s
16:00 3.3° 973.6 hPa 9.0 m/s 21.1 mm 3.2° 966.0 hPa 9.1 m/s 121.2 mm 2.9° 978.1 hPa 4.9 m/s 1.4 mm 3.9° 972.8 hPa 12.8 m/s 3.2° 975.9 hPa 7.3 m/s
19:00 3.9° 973.8 hPa 10.4 m/s 21.9 mm 2.6° 962.3 hPa 12.5 m/s 124.0 mm 2.8° 978.3 hPa 4.0 m/s 0.9 mm 4.8° 973.6 hPa 11.4 m/s 3.6° 974.9 hPa 8.3 m/s
22:00 3.9° 972.6 hPa 10.2 m/s 28.3 mm 1.8° 955.4 hPa 14.4 m/s 132.3 mm 3.0° 976.8 hPa 5.0 m/s 2.2 mm 4.4° 973.0 hPa 10.6 m/s 3.9° 970.9 hPa 11.1 m/s
 08:51     16:24    Daglengte: 7:33 Vrijdag 22 Jan
01:00 3.9° 971.8 hPa 9.2 m/s 28.8 mm 3.4° 954.2 hPa 10.2 m/s 139.0 mm 3.7° 975.4 hPa 5.1 m/s 1.3 mm 4.0° 972.3 hPa 9.7 m/s 4.1° 969.2 hPa 11.6 m/s
04:00 3.6° 971.7 hPa 7.8 m/s 42.2 mm 2.6° 956.5 hPa 8.4 m/s 143.6 mm 3.5° 973.2 hPa 3.9 m/s 1.0 mm 3.9° 972.3 hPa 8.4 m/s 4.1° 968.6 hPa 10.4 m/s
07:00 3.2° 971.5 hPa 6.5 m/s 48.3 mm 2.0° 959.7 hPa 6.2 m/s 143.9 mm 2.5° 971.4 hPa 2.4 m/s 0.5 mm 3.8° 972.4 hPa 7.1 m/s 3.3° 969.1 hPa 10.5 m/s
10:00 3.0° 970.6 hPa 5.2 m/s 49.6 mm 1.0° 962.0 hPa 4.7 m/s 143.9 mm 2.2° 970.0 hPa 2.1 m/s 2.4 mm 4.0° 972.8 hPa 6.4 m/s 3.6° 970.0 hPa 7.1 m/s
13:00 3.4° 970.2 hPa 4.7 m/s 52.4 mm 2.7° 963.9 hPa 4.0 m/s 143.9 mm 2.2° 967.8 hPa 3.2 m/s 6.6 mm 4.2° 973.3 hPa 5.7 m/s 3.6° 971.2 hPa 5.4 m/s
16:00 3.1° 975.4 hPa 4.6 m/s 65.9 mm 3.1° 975.7 hPa 4.5 m/s 3.1° 972.2 hPa 5.7 m/s 65.9 mm
19:00 2.6° 976.7 hPa 4.0 m/s 65.9 mm 2.6° 976.9 hPa 3.9 m/s 2.2° 974.5 hPa 5.6 m/s 65.9 mm
22:00 2.6° 978.4 hPa 4.4 m/s 65.9 mm 2.6° 978.5 hPa 4.3 m/s 2.8° 976.9 hPa 5.6 m/s 65.9 mm
 08:49     16:26    Daglengte: 7:37 Zaterdag 23 Jan
01:00 2.6° 980.2 hPa 4.8 m/s 65.9 mm 2.6° 980.2 hPa 4.7 m/s 2.5° 980.1 hPa 6.3 m/s 65.9 mm
04:00 2.0° 981.7 hPa 4.3 m/s 65.9 mm 2.0° 981.7 hPa 4.1 m/s 1.6° 982.4 hPa 7.1 m/s 65.9 mm
07:00 1.5° 983.3 hPa 3.8 m/s 65.9 mm 1.5° 983.1 hPa 3.5 m/s 0.9° 985.1 hPa 6.5 m/s 65.9 mm
10:00 2.2° 984.8 hPa 3.7 m/s 65.9 mm 2.3° 984.5 hPa 3.6 m/s 0.5° 987.5 hPa 4.2 m/s 65.9 mm
13:00 3.0° 986.3 hPa 3.6 m/s 65.9 mm 3.1° 986.0 hPa 3.8 m/s 1.6° 989.0 hPa 1.6 m/s 65.9 mm
16:00 1.8° 986.8 hPa 2.9 m/s 66.0 mm 1.9° 986.5 hPa 3.1 m/s 0.8° 989.5 hPa 0.6 m/s 66.0 mm
19:00 0.6° 987.3 hPa 2.4 m/s 66.1 mm 0.7° 987.1 hPa 2.4 m/s -0.2° 989.7 hPa 2.2 m/s 66.1 mm
22:00 0.1° 987.2 hPa 1.8 m/s 66.2 mm 0.2° 986.9 hPa 1.8 m/s -1.6° 990.4 hPa 2.1 m/s 66.2 mm
 08:47     16:29    Daglengte: 7:42 Zondag 24 Jan
01:00 -0.4° 987.0 hPa 1.3 m/s 66.2 mm -0.2° 986.7 hPa 1.2 m/s -2.2° 990.5 hPa 2.3 m/s 66.2 mm
04:00 -0.6° 987.6 hPa 1.3 m/s 66.2 mm -0.4° 987.4 hPa 1.3 m/s -2.6° 990.9 hPa 1.5 m/s 66.2 mm
07:00 -0.9° 988.3 hPa 1.4 m/s 66.2 mm -0.7° 988.0 hPa 1.4 m/s -3.5° 991.8 hPa 1.7 m/s 66.2 mm
10:00 -0.1° 989.5 hPa 1.5 m/s 66.2 mm 0.2° 989.2 hPa 1.4 m/s -3.9° 993.4 hPa 1.9 m/s 66.2 mm
13:00 1.0° 990.7 hPa 1.5 m/s 66.2 mm 1.2° 990.4 hPa 1.5 m/s -1.3° 994.2 hPa 2.0 m/s 66.2 mm
16:00 0.3° 992.1 hPa 1.8 m/s 66.2 mm 0.5° 991.8 hPa 1.8 m/s -2.1° 995.1 hPa 2.0 m/s 66.2 mm
19:00 -0.4° 993.4 hPa 2.0 m/s 66.2 mm -0.1° 993.2 hPa 2.0 m/s -3.2° 995.8 hPa 2.3 m/s 66.2 mm
22:00 -0.9° 994.1 hPa 1.7 m/s 66.2 mm -0.7° 993.8 hPa 1.6 m/s -2.7° 996.9 hPa 3.1 m/s 66.2 mm
 08:45     16:31    Daglengte: 7:46 Maandag 25 Jan
01:00 -1.4° 994.7 hPa 1.3 m/s 66.2 mm -1.3° 994.4 hPa 1.1 m/s -2.5° 997.5 hPa 3.6 m/s 66.2 mm
04:00 -1.6° 995.0 hPa 1.6 m/s 66.2 mm -1.5° 994.8 hPa 1.5 m/s -2.8° 998.3 hPa 3.3 m/s 66.2 mm
07:00 -1.8° 995.4 hPa 2.0 m/s 66.3 mm -1.7° 995.1 hPa 1.9 m/s -2.9° 999.1 hPa 3.6 m/s 66.3 mm
10:00 -0.9° 996.8 hPa 1.9 m/s 66.3 mm -0.8° 996.4 hPa 1.8 m/s -2.9° 1001.5 hPa 3.5 m/s 66.3 mm
13:00 0.0° 998.0 hPa 1.8 m/s 66.3 mm 0.2° 997.6 hPa 1.7 m/s -1.9° 1002.6 hPa 2.6 m/s 66.3 mm
16:00 -0.8° 999.1 hPa 1.7 m/s 66.3 mm -0.6° 998.7 hPa 1.7 m/s -3.0° 1003.9 hPa 2.1 m/s 66.3 mm
19:00 -1.6° 1000.2 hPa 1.7 m/s 66.3 mm -1.4° 999.7 hPa 1.7 m/s -3.8° 1005.8 hPa 1.4 m/s 66.3 mm
22:00 -3.0° 1001.0 hPa 1.6 m/s 66.3 mm -2.8° 1000.4 hPa 1.6 m/s -4.4° 1007.6 hPa 1.5 m/s 66.3 mm
 08:43     16:33    Daglengte: 7:50 Dinsdag 26 Jan
01:00 -4.4° 1001.7 hPa 1.5 m/s 66.3 mm -4.3° 1001.1 hPa 1.5 m/s -5.9° 1008.6 hPa 1.6 m/s 66.3 mm
04:00 -4.6° 1001.7 hPa 1.5 m/s 66.3 mm -4.3° 1001.0 hPa 1.4 m/s -6.8° 1009.1 hPa 1.7 m/s 66.3 mm
07:00 -4.7° 1001.7 hPa 1.4 m/s 66.3 mm -4.4° 1001.0 hPa 1.4 m/s -7.4° 1009.0 hPa 1.8 m/s 66.3 mm
10:00 -2.9° 1001.7 hPa 1.3 m/s 66.3 mm -2.6° 1001.1 hPa 1.3 m/s -7.1° 1008.7 hPa 1.8 m/s 66.3 mm
13:00 -1.0° 1001.7 hPa 1.3 m/s 66.3 mm -0.7° 1001.2 hPa 1.2 m/s -4.5° 1007.4 hPa 2.4 m/s 66.3 mm
19:00 -2.0° 1003.0 hPa 2.0 m/s 66.3 mm -1.6° 1002.8 hPa 1.8 m/s -6.4° 1004.8 hPa 4.5 m/s 66.3 mm
 08:41     16:36    Daglengte: 7:55 Woensdag 27 Jan
01:00 -3.2° 1003.2 hPa 2.0 m/s 66.3 mm -2.9° 1003.0 hPa 1.8 m/s -6.6° 1004.8 hPa 4.7 m/s 66.3 mm
07:00 -4.3° 1002.1 hPa 2.1 m/s 66.3 mm -4.1° 1001.8 hPa 1.9 m/s -6.4° 1004.9 hPa 4.5 m/s 66.3 mm
13:00 -1.7° 1002.3 hPa 2.5 m/s 66.3 mm -1.6° 1001.9 hPa 2.5 m/s -3.0° 1006.5 hPa 2.1 m/s 66.3 mm
19:00 -2.5° 1005.0 hPa 2.1 m/s 66.3 mm -2.2° 1004.8 hPa 2.1 m/s -5.4° 1007.4 hPa 2.0 m/s 66.3 mm
 08:39     16:38    Daglengte: 7:59 Donderdag 28 Jan
01:00 -5.3° 1005.1 hPa 1.6 m/s 66.3 mm -5.1° 1004.8 hPa 1.6 m/s -7.3° 1008.4 hPa 2.0 m/s 66.3 mm
07:00 -5.2° 1005.1 hPa 1.8 m/s 66.3 mm -5.0° 1004.7 hPa 1.8 m/s -7.9° 1009.5 hPa 1.7 m/s 66.3 mm
13:00 -2.5° 1004.7 hPa 1.8 m/s 66.3 mm -2.4° 1004.1 hPa 1.9 m/s -4.0° 1011.7 hPa 1.3 m/s 66.3 mm
19:00 -3.5° 1006.1 hPa 2.0 m/s 66.3 mm -3.3° 1005.5 hPa 2.0 m/s -5.6° 1012.4 hPa 2.4 m/s 66.3 mm
 08:37     16:40    Daglengte: 8:03 Vrijdag 29 Jan
01:00 -5.4° 1011.6 hPa 1.5 m/s 66.3 mm -5.4° 1011.6 hPa 1.5 m/s 66.3 mm
07:00 -2.6° 1002.1 hPa 3.8 m/s 0.9 mm
13:00 -0.9° 1003.3 hPa 2.6 m/s 1.2 mm
19:00 -1.3° 1003.8 hPa 2.5 m/s 0.8 mm
 08:35     16:43    Daglengte: 8:08 Zaterdag 30 Jan
01:00 -1.4° 1003.6 hPa 2.5 m/s 1.5 mm
07:00 -1.5° 1002.6 hPa 2.7 m/s 1.4 mm
13:00 -0.1° 1002.4 hPa 2.5 m/s 1.3 mm
19:00 -0.9° 1001.7 hPa 2.6 m/s 1.5 mm
 08:33     16:45    Daglengte: 8:12 Zondag 31 Jan
01:00 -1.4° 1001.1 hPa 3.0 m/s 2.2 mm
07:00 -2.1° 999.4 hPa 3.5 m/s 2.4 mm
13:00 -1.0° 999.3 hPa 4.1 m/s 1.8 mm
19:00 -1.7° 999.1 hPa 3.8 m/s 0.2 mm
 08:31     16:48    Daglengte: 8:17 Maandag 01 Feb
01:00 -2.5° 1000.0 hPa 4.1 m/s 0.7 mm
07:00 -3.1° 1000.5 hPa 4.3 m/s 0.9 mm
13:00 -1.6° 1002.1 hPa 3.8 m/s 0.6 mm
19:00 -2.3° 1002.9 hPa 3.6 m/s 0.4 mm
 08:29     16:50    Daglengte: 8:21 Dinsdag 02 Feb
01:00 -2.8° 1003.5 hPa 3.5 m/s 1.3 mm
07:00 -3.7° 1002.6 hPa 4.7 m/s 1.4 mm
13:00 -2.5° 1002.8 hPa 4.9 m/s 1.9 mm
19:00 -3.3° 1003.3 hPa 4.9 m/s 1.9 mm
 08:26     16:53    Daglengte: 8:27 Woensdag 03 Feb
01:00 -4.1° 1004.4 hPa 4.7 m/s 1.4 mm
07:00 -4.3° 1004.3 hPa 4.4 m/s 1.1 mm
FMI Hirlam - 7.5 km EWN WRFDA - 12 km DWD ICON - 7 km GFS - 25 km Basiskaart






























































Updatetijd (Europe/Amsterdam) Resolutie Lengte Stap
FMI Hirlam 06:15, 12:15, 18:15, 00:15 7.5 km 49h 1h
EWN WRFDA 09:30, 15:30, 21:30, 03:30 12 km 73h 1h
DWD ICON 10:45, 16:45, 22:45, 04:45 7 km 75h 1h
GFS 07:15, 13:15, 19:15, 01:15 25 km 237h 3h
30+ mm
25-30 mm
20-25 mm
15-20 mm
10-15 mm
6-10 mm
4-6 mm
2-4 mm
1-2 mm
0.5-1 mm
0.2-0.5 mm
0.1-0.2 mm
30+ mm
25-30 mm
20-25 mm
15-20 mm
10-15 mm
6-10 mm
4-6 mm
2-4 mm
1-2 mm
0.5-1 mm
0.2-0.5 mm
0.1-0.2 mm
Sneeuwval
Natte sneeuw
Hagel
Vorst
30+ mm
25-30 mm
20-25 mm
15-20 mm
10-15 mm
6-10 mm
4-6 mm
2-4 mm
1-2 mm
0.5-1 mm
0.2-0.5 mm
0.1-0.2 mm
Sneeuwval
Natte sneeuw
Hagel
Vorst
Onweer
50 mm
40 mm
30 mm
26 mm
22 mm
18 mm
14 mm
10 mm
9 mm
8 mm
7 mm
6 mm
5 mm
4.5 mm
4 mm
3.5 mm
3 mm
2.5 mm
2 mm
1.5 mm
1 mm
0.8 mm
0.6 mm
0.4 mm
0.2 mm
0.05 mm
35°
30°
25°
20°
15°
10°
-5°
-10°
-15°
-20°
-25°
-30°
-35°
33> m/s
29 m/s
25 m/s
21 m/s
17 m/s
14 m/s
11 m/s
8 m/s
5 m/s
3 m/s
0 m/s
2600 J/kg
2400 J/kg
2200 J/kg
2000 J/kg
1800 J/kg
1600 J/kg
1400 J/kg
1200 J/kg
1000 J/kg
800 J/kg
600 J/kg
400 J/kg
200 J/kg
70 dBZ
65 dBZ
60 dBZ
55 dBZ
50 dBZ
45 dBZ
40 dBZ
35 dBZ
30 dBZ
25 dBZ
20 dBZ
15 dBZ
10 dBZ
5 dBZ
-1 K
-2 K
-3 K
-4 K
-5 K
-6 K
-7 K
-8 K
-9 K
950 m²/s²
900 m²/s²
850 m²/s²
800 m²/s²
750 m²/s²
700 m²/s²
650 m²/s²
600 m²/s²
550 m²/s²
500 m²/s²
450 m²/s²
400 m²/s²
350 m²/s²
300 m²/s²
250 m²/s²
200 m²/s²
150 m²/s²
100 m²/s²
46 m/s
44 m/s
42 m/s
40 m/s
38 m/s
36 m/s
34 m/s
32 m/s
30 m/s
28 m/s
26 m/s
24 m/s
22 m/s
20 m/s
16 m/s
12 m/s
8 m/s
4 m/s
30 m/s
28 m/s
26 m/s
24 m/s
22 m/s
20 m/s
18 m/s
16 m/s
14 m/s
12 m/s
10 m/s
8 m/s
6 m/s
4 m/s
2 m/s
3.0
2.8
2.6
2.4
2.2
2.0
1.8
1.6
1.4
1.2
1.0
0.8
0.6
0.4
0.2
15
14
13
12
11
10
9
8
7
6
5
4
3
2
1
90%
80%
70%
60%
50%
40%
30%
20%
10%
42
40
38
36
34
32
30
28
26
24
22
20
18
16
14
12
90+ cm
80-90 cm
70-80 cm
60-70 cm
50-60 cm
40-50 cm
30-40 cm
20-30 cm
10-20 cm
1-10 cm
Sneeuwval
Natte sneeuw
Regen
>120 mm
115 mm
110 mm
105 mm
100 mm
95 mm
90 mm
85 mm
80 mm
75 mm
70 mm
65 mm
60 mm
55 mm
50 mm
45 mm
45 mm
40 mm
35 mm
30 mm
25 mm
20 mm
15 mm
10 mm
5 mm
0.1 mm
960 hPa
880 hPa
800 hPa
720 hPa
640 hPa
560 hPa
584 gpdm
568 gpdm
552 gpdm
536 gpdm
520 gpdm
504 gpdm
488 gpdm
Extreem zwaar Noodweer Kans op onweer
15% 15% 5% 50% 15%

Dag




Kaart






35°
30°
25°